Location: Knowlton
(51.2333°N, 1.2667°E)
Time: 10:40:05
(UTC+00:00)

Spot 4 - Pass Details

Date: 18 April 2021
Orbit: 704 x 723 km, 98.3° (Epoch: 16 May)

Event Time Altitude Azimuth Distance (km) Brightness Sun altitude
Exits shadow 22:11:45 43° 84° (E) 1,007 4.4 -23.8°
Maximum altitude 22:12:13 45° 67° (ENE) 988 4.5 -23.8°
Drops below altitude 10° 22:16:51 10° 356° (N) 2,225 7.3 -24.1°
Sets 22:19:12 0° 350° (N) 3,151 8.4 -24.3°
